Volver al catálogo

STARLINK-4598

ActivoComunicacionesVLEO
NORAD 53630·PAYLOAD·🇺🇸 United States

Lanzado Aug 28, 2022 desde Cape Canaveral Space Force Station

Loading…

Próximos Pases (próximas 24 horas)

TLE

ActualizadoSource: CelesTrak SupGP

Época: Sep 15, 2026, 02:16 UTC

1 53630C 22104AU  26258.09493056  .00730850  00000+0  16461-1 0  2584
2 53630  53.1600  82.7532 0001090  78.5440  90.8886 15.42333799    15

Sigue STARLINK-4598 en tiempo real con AllMySat

Download on the App Store